OK2ZAW-23 Weather Reports


time (UTC)temp
C
wind
direction
speed
KPH
gust
KPH
rain 1hr
cm
rain 24hr
cm
rain mn
cm
humidity
%
barometer
mb
20260507033618 10 0 0.0 0.0 0.00 0.00 0.00 10 1006.0
20260507033105 10 0 0.0 0.0 0.00 0.00 0.00 10 1006.0
20260507032551 10 0 0.0 0.0 0.00 0.00 0.00 10 1006.0
20260507031525 10 0 0.0 0.0 0.00 0.00 0.00 99 1006.0
20260507031012 10 0 0.0 0.0 0.00 0.00 0.00 98 1005.9
20260507030458 10 0 0.0 0.0 0.00 0.00 0.00 98 1005.9
20260507025945 10 0 0.0 0.0 0.00 0.00 0.00 98 1005.9
20260507025432 10 0 0.0 0.0 0.00 0.00 0.00 10 1005.9
20260507024918 10 0 0.0 0.0 0.00 0.00 0.00 98 1005.8
20260507024405 10 0 0.0 0.0 0.00 0.00 0.00 99 1005.8
20260507022825 10 0 0.0 0.0 0.00 0.00 0.00 10 1005.6
20260507022312 10 0 0.0 0.0 0.00 0.00 0.00 10 1005.7
20260507021245 10 0 0.0 0.0 0.00 0.00 0.00 10 1005.7
20260507020219 10 0 0.0 0.0 0.00 0.00 0.00 99 1005.6
20260507015706 10 0 0.0 0.0 0.00 0.00 0.00 99 1005.6
20260507015153 10 0 0.0 0.0 0.00 0.00 0.00 99 1005.4
20260507014639 11 0 0.0 0.0 0.00 0.00 0.00 10 1005.2
20260507014126 11 0 0.0 0.0 0.00 0.00 0.00 10 1005.1
20260507012546 11 0 0.0 0.0 0.00 0.00 0.00 99 1005.0
20260507012032 11 0 0.0 0.0 0.00 0.00 0.00 10 1005.2
20260507011006 11 0 0.0 0.0 0.00 0.00 0.00 10 1005.2
20260507010453 11 0 0.0 0.0 0.00 0.00 0.00 10 1005.2
20260507005939 11 0 0.0 0.0 0.00 0.00 0.00 10 1005.2
20260507005426 11 0 0.0 0.0 0.00 0.00 0.00 10 1005.1
20260507004359 11 0 0.0 0.0 0.00 0.00 0.00 10 1004.9
20260507003846 11 0 0.0 0.0 0.00 0.00 0.00 10 1005.0
20260507003333 11 0 0.0 0.0 0.00 0.00 0.00 10 1004.9
20260507002306 11 0 0.0 0.0 0.00 0.00 0.00 98 1004.9
20260506235700 11 0 0.0 0.0 0.00 0.00 0.00 98 1004.6
20260506234632 11 0 0.0 0.0 0.00 0.00 0.00 96 1004.5
20260506233052 11 0 0.0 0.0 0.00 0.00 0.00 99 1003.7
20260506232539 11 0 0.0 0.0 0.00 0.00 0.00 99 1003.7
20260506232025 11 0 0.0 0.0 0.00 0.00 0.00 10 1003.5
20260506230959 11 0 0.0 0.0 0.00 0.00 0.00 98 1003.4
20260506230445 11 0 0.0 0.0 0.00 0.00 0.00 10 1003.4
20260506225932 11 0 0.0 0.0 0.00 0.00 0.00 99 1003.5
20260506224905 12 0 0.0 0.0 0.00 0.00 0.00 98 1003.5
20260506224352 12 0 0.0 0.0 0.00 0.00 0.00 97 1003.6
20260506223839 12 0 0.0 0.0 0.00 0.00 0.00 97 1003.2
20260506223325 12 0 0.0 0.0 0.00 0.00 0.00 96 1003.2
20260506222811 12 0 0.0 0.0 0.00 0.00 0.00 93 1003.1
20260506221744 12 0 0.0 0.0 0.00 0.00 0.00 91 1003.1
20260506221231 12 0 0.0 0.0 0.00 0.00 0.00 91 1003.1
20260506215650 13 0 0.0 0.0 0.00 0.00 0.00 88 1003.4
20260506215137 13 0 0.0 0.0 0.00 0.00 0.00 85 1003.2
20260506214623 14 0 0.0 0.0 0.00 0.00 0.00 80 1003.1
20260506212529 15 0 0.0 0.0 0.00 0.00 0.00 66 1002.1
20260506212015 15 0 0.0 0.0 0.00 0.00 0.00 66 1002.1
20260506211502 15 0 0.0 0.0 0.00 0.00 0.00 65 1002.0
20260506210434 15 0 0.0 0.0 0.00 0.00 0.00 65 1001.8
20260506205920 15 0 0.0 0.0 0.00 0.00 0.00 65 1001.8
20260506205407 15 0 0.0 0.0 0.00 0.00 0.00 65 1001.8
20260506203826 15 0 0.0 0.0 0.00 0.00 0.00 65 1001.8
20260506203312 15 0 0.0 0.0 0.00 0.00 0.00 65 1001.8
20260506202758 15 0 0.0 0.0 0.00 0.00 0.00 65 1001.7
20260506202245 15 0 0.0 0.0 0.00 0.00 0.00 65 1001.8
20260506200704 15 0 0.0 0.0 0.00 0.00 0.00 66 1001.8
20260506194609 15 0 0.0 0.0 0.00 0.00 0.00 69 1001.9
20260506194055 16 0 0.0 0.0 0.00 0.00 0.00 64 1001.9
20260506193541 16 0 0.0 0.0 0.00 0.00 0.00 65 1001.9
20260506193027 16 0 0.0 0.0 0.00 0.00 0.00 54 1001.8
20260506192513 16 0 0.0 0.0 0.00 0.00 0.00 54 1001.7
20260506192000 17 0 0.0 0.0 0.00 0.00 0.00 53 1001.6
20260506191446 17 0 0.0 0.0 0.00 0.00 0.00 53 1001.6
20260506190932 17 0 0.0 0.0 0.00 0.00 0.00 52 1001.4
20260506190418 17 0 0.0 0.0 0.00 0.00 0.00 52 1001.4
20260506185350 17 0 0.0 0.0 0.00 0.00 0.00 49 1001.3
20260506184836 17 0 0.0 0.0 0.00 0.00 0.00 47 1001.3
20260506183808 18 0 0.0 0.0 0.00 0.00 0.00 46 1001.3
20260506181712 18 0 0.0 0.0 0.00 0.00 0.00 43 1001.0
20260506181158 19 0 0.0 0.0 0.00 0.00 0.00 42 1000.9
20260506180644 19 0 0.0 0.0 0.00 0.00 0.00 41 1001.0
20260506180130 20 0 0.0 0.0 0.00 0.00 0.00 41 1001.0
20260506175102 21 0 0.0 0.0 0.00 0.00 0.00 38 1001.0
20260506174547 21 0 0.0 0.0 0.00 0.00 0.00 38 1000.9
20260506174033 21 0 0.0 0.0 0.00 0.00 0.00 37 1000.9
20260506173004 23 0 0.0 0.0 0.00 0.00 0.00 34 1001.0
20260506172450 23 0 0.0 0.0 0.00 0.00 0.00 33 1001.0
20260506170906 27 0 0.0 0.0 0.00 0.00 0.00 29 1000.9
20260506165320 31 0 0.0 0.0 0.00 0.00 0.00 26 1000.8
20260506164249 32 0 0.0 0.0 0.00 0.00 0.00 25 1000.8
20260506162147 32 0 0.0 0.0 0.00 0.00 0.00 26 1001.1
20260506161632 31 0 0.0 0.0 0.00 0.00 0.00 26 1001.3
20260506160601 33 0 0.0 0.0 0.00 0.00 0.00 25 1001.4
20260506160045 32 0 0.0 0.0 0.00 0.00 0.00 25 1001.5
20260506155530 32 0 0.0 0.0 0.00 0.00 0.00 25 1001.4
20260506155015 32 0 0.0 0.0 0.00 0.00 0.00 26 1001.4
20260506154458 32 0 0.0 0.0 0.00 0.00 0.00 27 1001.4
20260506153427 31 0 0.0 0.0 0.00 0.00 0.00 28 1001.6
20260506152357 28 0 0.0 0.0 0.00 0.00 0.00 31 1001.9
20260506151842 28 0 0.0 0.0 0.00 0.00 0.00 32 1001.9
20260506151327 27 0 0.0 0.0 0.00 0.00 0.00 33 1002.0
20260506150812 26 0 0.0 0.0 0.00 0.00 0.00 34 1002.1
20260506145227 27 0 0.0 0.0 0.00 0.00 0.00 33 1002.2
20260506144157 26 0 0.0 0.0 0.00 0.00 0.00 35 1002.4
20260506143643 26 0 0.0 0.0 0.00 0.00 0.00 35 1002.4
20260506143127 25 0 0.0 0.0 0.00 0.00 0.00 36 1002.5
20260506142614 26 0 0.0 0.0 0.00 0.00 0.00 35 1002.6
20260506142058 26 0 0.0 0.0 0.00 0.00 0.00 34 1002.6
20260506141028 25 0 0.0 0.0 0.00 0.00 0.00 35 1002.8
20260506140513 26 0 0.0 0.0 0.00 0.00 0.00 34 1002.9
20260506135958 27 0 0.0 0.0 0.00 0.00 0.00 33 1002.8
20260506133344 26 0 0.0 0.0 0.00 0.00 0.00 35 1003.0
20260506132829 25 0 0.0 0.0 0.00 0.00 0.00 36 1003.1
20260506132315 25 0 0.0 0.0 0.00 0.00 0.00 36 1003.2
20260506131245 24 0 0.0 0.0 0.00 0.00 0.00 36 1003.4
20260506125701 23 0 0.0 0.0 0.00 0.00 0.00 36 1003.6
20260506123603 23 0 0.0 0.0 0.00 0.00 0.00 37 1003.9
20260506123048 24 0 0.0 0.0 0.00 0.00 0.00 37 1003.9
20260506122534 25 0 0.0 0.0 0.00 0.00 0.00 37 1004.1
20260506115405 25 0 0.0 0.0 0.00 0.00 0.00 36 1004.2
20260506114336 24 0 0.0 0.0 0.00 0.00 0.00 37 1004.2
20260506113307 24 0 0.0 0.0 0.00 0.00 0.00 36 1004.3
20260506105109 25 0 0.0 0.0 0.00 0.00 0.00 40 1004.6
20260506104555 24 0 0.0 0.0 0.00 0.00 0.00 41 1004.7
20260506103525 23 0 0.0 0.0 0.00 0.00 0.00 43 1004.7
20260506103011 23 0 0.0 0.0 0.00 0.00 0.00 44 1004.8
20260506102457 23 0 0.0 0.0 0.00 0.00 0.00 44 1004.8
20260506101942 23 0 0.0 0.0 0.00 0.00 0.00 43 1004.8
20260506101427 23 0 0.0 0.0 0.00 0.00 0.00 44 1004.9
20260506100913 23 0 0.0 0.0 0.00 0.00 0.00 45 1004.9
20260506095845 22 0 0.0 0.0 0.00 0.00 0.00 46 1005.1
20260506095330 22 0 0.0 0.0 0.00 0.00 0.00 44 1005.0
20260506093232 21 0 0.0 0.0 0.00 0.00 0.00 48 1005.1
20260506092203 22 0 0.0 0.0 0.00 0.00 0.00 51 1005.1
20260506091649 21 0 0.0 0.0 0.00 0.00 0.00 53 1004.9
20260506091135 21 0 0.0 0.0 0.00 0.00 0.00 54 1005.0
20260506090620 20 0 0.0 0.0 0.00 0.00 0.00 54 1005.1
20260506090106 19 0 0.0 0.0 0.00 0.00 0.00 54 1005.1
20260506085552 19 0 0.0 0.0 0.00 0.00 0.00 54 1005.0
20260506085038 18 0 0.0 0.0 0.00 0.00 0.00 55 1005.0
20260506084010 19 0 0.0 0.0 0.00 0.00 0.00 59 1005.2
20260506082942 19 0 0.0 0.0 0.00 0.00 0.00 58 1005.2
20260506082428 19 0 0.0 0.0 0.00 0.00 0.00 57 1005.2
20260506081914 18 0 0.0 0.0 0.00 0.00 0.00 56 1005.2
20260506073209 16 0 0.0 0.0 0.00 0.00 0.00 68 1005.3
20260506072655 16 0 0.0 0.0 0.00 0.00 0.00 68 1005.3
20260506071628 16 0 0.0 0.0 0.00 0.00 0.00 71 1005.4
20260506061343 13 0 0.0 0.0 0.00 0.00 0.00 85 1005.1
20260506060830 13 0 0.0 0.0 0.00 0.00 0.00 86 1005.0
20260506050548 12 0 0.0 0.0 0.00 0.00 0.00 10 1004.9
20260506045008 11 0 0.0 0.0 0.00 0.00 0.00 10 1004.6
20260506043942 11 0 0.0 0.0 0.00 0.00 0.00 10 1004.5
20260506043428 11 0 0.0 0.0 0.00 0.00 0.00 10 1004.5
20260506042914 11 0 0.0 0.0 0.00 0.00 0.00 10 1004.4
20260506041848 11 0 0.0 0.0 0.00 0.00 0.00 10 1004.3
20260506040822 11 0 0.0 0.0 0.00 0.00 0.00 10 1004.3
20260506035754 11 0 0.0 0.0 0.00 0.00 0.00 10 1004.1